This is the latest recevied weather packets stored in our database for station/object SP1BMW-13. If no packets are shown the sender has not sent any weather packets the latest 10 day(s).
| Time | Temp. | Humidity | Pressure | Rain* | Wind** | Luminosity | Snow |
|---|---|---|---|---|---|---|---|
| 1787845936 | 26.11° C | 36% | 1017.7 hPa | 0 mm | 0.45 m/s, 103° | 175 W/m² | - |
| 1787845876 | 26.11° C | 39% | 1018 hPa | 0 mm | 0 m/s | 176 W/m² | - |
| 1787845816 | 26.11° C | 36% | 1017.7 hPa | 0 mm | 1.79 m/s, 44° | 179 W/m² | - |
| 1787845756 | 26.11° C | 36% | 1017.9 hPa | 0 mm | 0.89 m/s, 109° | 178 W/m² | - |
| 1787845696 | 26.11° C | 36% | 1017.7 hPa | 0 mm | 0.89 m/s, 16° | 192 W/m² | - |
| 1787845636 | 26.11° C | 36% | 1018.1 hPa | 0 mm | 0.89 m/s, 67° | 194 W/m² | - |
| 1787845576 | 26.11° C | 36% | 1017.9 hPa | 0 mm | 0.89 m/s, 127° | 197 W/m² | - |
| 1787845516 | 26.11° C | 36% | 1017.9 hPa | 0 mm | 0.89 m/s, 84° | 198 W/m² | - |
| 1787845456 | 26.11° C | 35% | 1017.9 hPa | 0 mm | 1.79 m/s, 338° | 199 W/m² | - |
| 1787845396 | 26.11° C | 35% | 1017.9 hPa | 0 mm | 2.24 m/s, 156° | 197 W/m² | - |
| 1787845336 | 26.11° C | 37% | 1017.9 hPa | 0 mm | 0.45 m/s, 198° | 195 W/m² | - |
| 1787845276 | 26.11° C | 36% | 1018 hPa | 0 mm | 0.89 m/s, 23° | 198 W/m² | - |
| 1787845216 | 26.11° C | 36% | 1017.9 hPa | 0 mm | 0.45 m/s, 83° | 204 W/m² | - |
| 1787845156 | 26.11° C | 36% | 1017.8 hPa | 0 mm | 0.45 m/s, 75° | 211 W/m² | - |
| 1787845096 | 26.11° C | 36% | 1018 hPa | 0 mm | 0.89 m/s, 122° | 217 W/m² | - |
| 1787845036 | 26.11° C | 36% | 1018.1 hPa | 0 mm | 1.34 m/s, 151° | 219 W/m² | - |
| 1787844976 | 26.11° C | 36% | 1017.8 hPa | 0 mm | 0.45 m/s, 63° | 221 W/m² | - |
| 1787844916 | 26.11° C | 37% | 1017.9 hPa | 0 mm | 0 m/s | 219 W/m² | - |
| 1787844856 | 26.11° C | 36% | 1017.9 hPa | 0 mm | 0.89 m/s, 26° | 223 W/m² | - |
| 1787844796 | 26.11° C | 35% | 1018 hPa | 0 mm | 1.34 m/s, 13° | 222 W/m² | - |
| 1787844736 | 26.11° C | 35% | 1018 hPa | 0 mm | 1.79 m/s, 68° | 225 W/m² | - |
| 1787844676 | 26.11° C | 36% | 1018 hPa | 0 mm | 1.34 m/s, 38° | 234 W/m² | - |
| 1787844616 | 26.11° C | 35% | 1018 hPa | 0 mm | 1.34 m/s, 55° | 235 W/m² | - |
| 1787844556 | 26.11° C | 35% | 1018 hPa | 0 mm | 0.89 m/s, 114° | 237 W/m² | - |
| 1787844496 | 26.11° C | 36% | 1017.9 hPa | 0 mm | 0.45 m/s, 19° | 237 W/m² | - |
* Rain latest hour (hover to see other rain measurements)
** Current wind speed in m/s (hover to see current wind gust speed)